S51UL-6 Weather Reports


Display with metric or nautical units.
time (UTC)temp
F
wind
direction
speed
MPH
gust
MPH
rain 1hr
in
rain 24hr
in
rain mn
in
humidity
%
barometer
mb
20260906203010 62 90 0.0 0.0 0.41 9.99 0.00 77 1026.5
20260906202510 62 90 0.0 0.0 0.37 9.99 0.00 76 1026.6
20260906201510 62 90 0.0 0.0 0.28 9.99 0.00 75 1026.6
20260906201010 63 90 0.0 0.0 0.28 9.99 0.00 74 1026.5
20260906200010 63 90 0.0 0.0 0.26 9.99 0.00 73 1026.2
20260906195510 64 90 0.0 0.0 0.32 9.99 0.00 73 1026.2
20260906195010 64 90 0.0 0.0 0.28 9.99 0.00 73 1026.2
20260906194510 64 90 0.0 0.0 0.39 9.99 0.00 73 1026.1
20260906194010 64 90 0.0 0.0 0.43 9.99 0.00 73 1026.3
20260906193511 65 90 0.0 0.0 0.26 9.99 0.00 72 1026.2
20260906193010 65 90 0.0 0.0 0.28 9.99 0.00 71 1026.3
20260906192511 65 90 0.0 0.0 0.32 9.99 0.00 70 1026.3
20260906192010 65 90 0.0 0.0 0.32 9.99 0.00 71 1026.1
20260906191510 66 90 0.0 0.0 0.39 9.99 0.00 70 1026.2
20260906191011 66 90 0.0 0.0 0.39 9.99 0.00 70 1026.2
20260906190011 67 90 0.0 0.0 0.37 9.99 0.00 68 1025.9
20260906185511 67 90 0.0 0.0 0.39 9.99 0.00 68 1025.7
20260906185011 67 158 0.0 0.0 0.28 9.99 0.00 68 1025.9
20260906184511 67 158 0.0 0.0 0.43 9.99 0.00 67 1025.7
20260906184011 67 158 0.0 0.0 0.47 9.99 0.00 67 1025.7
20260906183511 68 158 0.0 0.0 0.45 9.99 0.00 67 1025.6
20260906183011 68 158 0.0 0.0 0.51 9.99 0.00 66 1025.4
20260906182511 68 158 0.0 0.0 0.75 9.99 0.00 65 1025.6
20260906181511 68 158 0.0 0.0 0.82 9.99 0.00 65 1025.4
20260906180511 69 158 0.0 0.0 1.06 9.99 0.00 64 1025.1
20260906180011 69 158 0.0 0.0 1.04 9.99 0.00 63 1025.3
20260906175512 70 158 0.0 0.0 1.10 9.99 0.00 62 1025.1
20260906175012 70 158 0.0 0.0 0.96 9.99 0.00 60 1024.9
20260906174512 71 158 0.0 0.0 1.12 9.99 0.00 59 1024.8
20260906174012 71 158 0.0 0.0 1.10 9.99 0.00 59 1024.6
20260906173512 72 158 0.0 0.0 1.04 9.99 0.00 57 1024.7
20260906173012 73 158 0.0 0.0 0.85 9.99 0.00 56 1024.6
20260906172512 73 158 0.0 0.0 0.96 9.99 0.00 56 1024.7
20260906172012 74 180 0.0 0.0 0.96 9.99 0.00 54 1024.7
20260906171512 74 180 0.0 0.0 0.87 9.99 0.00 53 1024.4
20260906171012 75 158 0.0 0.0 0.87 9.99 0.00 53 1024.5
20260906165513 76 158 0.0 2.0 0.98 9.99 0.00 51 1024.6
20260906165012 76 135 0.0 2.0 0.82 9.99 0.00 51 1024.5
20260906164512 77 135 0.0 0.0 1.14 9.99 0.00 51 1024.6
20260906164013 77 135 0.0 0.0 1.12 9.99 0.00 51 1024.5
20260906163012 78 158 0.0 0.0 1.04 9.99 0.00 50 1024.6
20260906161512 78 158 1.0 3.0 1.04 9.99 0.00 49 1024.6
20260906161013 79 135 1.0 3.0 1.16 9.99 0.00 49 1024.6
20260906160513 79 135 0.0 0.0 0.98 9.99 0.00 49 1024.7
20260906160013 79 135 0.0 2.0 0.89 9.99 0.00 49 1024.5
20260906155513 79 180 0.0 2.0 0.89 9.99 0.00 48 1024.8
20260906154013 80 158 1.0 4.0 0.51 9.99 0.00 47 1024.6
20260906153513 80 135 1.0 3.0 0.45 9.99 0.00 47 1024.7
20260906153013 81 90 0.0 3.0 0.32 9.99 0.00 47 1024.5
20260906152513 81 135 0.0 3.0 0.30 9.99 0.00 47 1024.7
20260906152013 82 158 1.0 3.0 0.30 9.99 0.00 47 1024.7
20260906151514 82 135 0.0 0.0 0.10 9.99 0.00 46 1024.6
20260906151013 83 135 0.0 0.0 0.10 9.99 0.00 45 1024.7
20260906150013 84 135 2.0 4.0 0.04 9.99 0.00 44 1024.7
20260906145014 85 135 0.0 4.0 0.02 9.99 0.00 44 1024.7
20260906144514 86 135 2.0 4.0 0.02 9.99 0.00 43 1024.7
20260906144014 86 158 2.0 4.0 0.00 9.99 0.00 43 1024.7
20260906143515 87 135 1.0 3.0 0.00 9.99 0.00 43 1024.7
20260906143014 87 0 0.0 0.0 0.00 9.99 0.00 42 1024.8
20260906142514 87 23 0.0 0.0 0.00 9.99 0.00 41 1024.9
20260906142014 88 45 0.0 0.0 0.00 9.99 0.00 41 1024.8
20260906141514 88 135 0.0 0.0 0.00 9.99 0.00 42 1025.0
20260906141014 88 158 0.0 2.0 0.00 9.99 0.00 42 1024.8
20260906140014 89 158 0.0 0.0 0.04 9.99 0.00 41 1024.8
20260906135514 90 135 0.0 0.0 0.04 9.99 0.00 41 1024.8
20260906135014 90 135 0.0 0.0 0.04 9.99 0.00 42 1025.0
20260906134515 90 158 1.0 3.0 0.04 9.99 0.00 42 1024.9
20260906134014 89 135 1.0 3.0 0.04 9.99 0.00 42 1025.1
20260906133514 89 45 1.0 3.0 0.04 9.99 0.00 42 1024.9
20260906133015 89 113 0.0 3.0 0.06 9.99 0.00 42 1025.0
20260906132515 88 45 1.0 5.0 0.06 9.99 0.00 42 1024.9
20260906131514 88 158 2.0 4.0 0.10 9.99 0.00 43 1025.0
20260906131015 88 135 3.0 4.0 0.06 9.99 0.00 42 1025.2
20260906130516 88 135 3.0 4.0 0.14 9.99 0.00 42 1025.2
20260906130015 88 248 4.0 4.0 0.18 9.99 0.00 43 1025.2
20260906125515 88 158 3.0 4.0 0.18 9.99 0.00 42 1025.2
20260906125016 88 158 3.0 4.0 0.18 9.99 0.00 43 1025.3
20260906124515 88 135 3.0 6.0 0.22 9.99 0.00 43 1025.3
20260906123515 89 135 1.0 2.0 0.24 9.99 0.00 42 1025.3
20260906123017 88 135 1.0 6.0 0.26 9.99 0.00 43 1025.3
20260906122515 88 135 3.0 6.0 0.30 9.99 0.00 42 1025.4
20260906122015 88 135 4.0 8.0 0.30 9.99 0.00 42 1025.3
20260906121515 89 135 2.0 8.0 0.35 9.99 0.00 42 1025.4
20260906121016 89 203 3.0 8.0 0.35 9.99 0.00 41 1025.5
20260906120015 92 203 0.0 0.0 0.37 9.99 0.00 41 1025.6
20260906115516 92 248 0.0 3.0 0.37 9.99 0.00 41 1025.6
20260906115016 92 135 2.0 4.0 0.32 9.99 0.00 41 1025.6
20260906114516 92 158 2.0 5.0 0.32 9.99 0.00 41 1025.7
20260906114016 91 135 3.0 5.0 0.32 9.99 0.00 42 1025.8
20260906113517 91 135 1.0 4.0 0.30 9.99 0.00 40 1025.8
20260906110517 92 158 0.0 4.0 0.18 9.99 0.00 44 1026.2
20260906110016 90 113 2.0 5.0 0.12 9.99 0.00 44 1026.0
20260906105016 88 158 1.0 3.0 0.12 9.99 0.00 48 1026.1
20260906104516 87 135 2.0 4.0 0.14 9.99 0.00 48 1026.0
20260906104017 84 135 4.0 5.0 0.10 9.99 0.00 49 1026.3
20260906103516 84 135 1.0 5.0 0.08 9.99 0.00 48 1026.3
20260906103016 84 113 0.0 0.0 0.08 9.99 0.00 51 1026.2
20260906102516 82 135 2.0 9.0 0.02 9.99 0.00 52 1026.2
20260906102017 82 135 5.0 9.0 0.02 9.99 0.00 51 1026.4
20260906101517 81 135 2.0 7.0 0.02 9.99 0.00 52 1026.3
20260906101017 80 135 3.0 7.0 0.02 9.99 0.00 53 1026.4
20260906100517 80 135 3.0 4.0 0.02 9.99 0.00 53 1026.5
20260906095517 79 135 4.0 7.0 0.02 9.99 0.00 54 1026.7
20260906095019 79 135 2.0 4.0 0.00 9.99 0.00 55 1026.7
20260906094517 79 135 1.0 4.0 0.02 9.99 0.00 54 1026.7
20260906094018 79 135 2.0 3.0 0.02 9.99 0.00 55 1026.9
20260906093017 78 135 2.0 4.0 0.02 9.99 0.00 59 1027.0
20260906092517 77 135 2.0 4.0 0.02 9.99 0.00 58 1026.9
20260906092018 77 158 3.0 6.0 0.02 9.99 0.00 57 1027.0
20260906091517 76 158 4.0 6.0 0.04 9.99 0.00 58 1027.1
20260906090518 76 135 2.0 4.0 0.04 9.99 0.00 59 1027.1
20260906085518 76 180 2.0 4.0 0.75 9.99 0.00 61 1027.1
20260906085018 75 180 2.0 6.0 0.73 9.99 0.00 62 1027.1
20260906084517 75 135 3.0 6.0 1.57 9.99 0.00 63 1027.3
20260906084018 75 135 4.0 5.0 2.24 9.99 0.00 63 1027.3
20260906083518 75 158 2.0 5.0 2.75 9.99 0.00 63 1027.5
20260906082518 74 158 1.0 2.0 3.20 9.99 0.00 69 1027.5
20260906081518 73 158 2.0 4.0 3.35 9.99 0.00 69 1027.4
20260906081018 73 158 3.0 5.0 3.63 9.99 0.00 71 1027.5
20260906075518 72 158 2.0 5.0 3.71 9.99 0.00 80 1027.6
20260906074018 68 113 2.0 4.0 2.86 9.99 0.00 85 1027.5
20260906072519 65 135 0.0 0.0 3.65 9.99 0.00 91 1027.4
20260906071519 64 135 0.0 0.0 3.94 9.99 0.00 92 1027.5
20260906071019 62 135 0.0 0.0 4.14 9.99 0.00 92 1027.4
20260906065019 61 158 0.0 0.0 3.14 9.99 0.00 92 1027.6
20260906064519 61 158 0.0 0.0 3.28 9.99 0.00 92 1027.5
20260906064019 61 203 0.0 0.0 2.32 9.99 0.00 92 1027.5
20260906062520 60 203 0.0 0.0 1.04 9.99 0.00 92 1027.6
20260906062020 60 203 0.0 0.0 1.04 9.99 0.00 92 1027.5
20260906061519 60 203 0.0 0.0 0.49 9.99 0.00 92 1027.4
20260906060020 59 203 0.0 0.0 0.24 9.99 0.00 92 1027.2
20260906055519 58 203 0.0 0.0 0.24 9.99 0.00 92 1027.1
20260906054520 58 203 0.0 0.0 0.10 9.99 0.00 92 1026.9
20260906054020 58 203 0.0 0.0 0.08 9.99 0.00 92 1026.8
20260906053521 58 203 0.0 0.0 0.14 9.99 0.00 91 1026.8
20260906053020 58 203 0.0 0.0 0.18 9.99 0.00 91 1026.8
20260906052520 57 203 0.0 0.0 0.24 9.99 0.00 91 1026.8
20260906052020 57 203 0.0 0.0 0.26 9.99 0.00 91 1026.7
20260906051521 57 203 0.0 0.0 0.30 9.99 0.00 91 1026.8
20260906051020 57 203 0.0 0.0 0.37 9.99 0.00 91 1026.8
20260906050020 57 158 0.0 0.0 1.08 9.99 0.00 91 1026.6
20260906045521 57 180 0.0 0.0 1.08 9.99 0.00 91 1026.7
20260906045020 57 158 0.0 0.0 1.08 9.99 0.00 91 1026.5
20260906044520 57 23 0.0 0.0 1.82 9.99 0.00 91 1026.4
20260906044020 57 23 0.0 0.0 1.98 9.99 0.00 91 1026.4
20260906043520 56 23 0.0 0.0 2.36 9.99 0.00 91 1026.2
20260906042521 56 23 0.0 0.0 4.04 9.99 0.00 91 1026.1
20260906042021 56 23 0.0 0.0 4.04 9.99 0.00 91 1025.9
20260906041521 56 23 0.0 0.0 5.10 9.99 0.00 91 1025.9
20260906040021 56 23 0.0 0.0 6.59 9.99 0.00 91 1025.9
20260906035521 56 23 0.0 0.0 6.59 9.99 0.00 91 1025.9
20260906035022 56 23 0.0 0.0 5.85 9.99 0.00 91 1025.8
20260906034521 56 23 0.0 0.0 7.39 9.99 0.00 91 1025.7
20260906034021 56 23 0.0 0.0 7.53 9.99 0.00 91 1025.6
20260906033522 56 23 0.0 0.0 7.71 9.99 0.00 91 1025.5
20260906032522 56 23 0.0 0.0 8.06 9.99 0.00 91 1025.3
20260906032021 56 23 0.0 0.0 8.18 9.99 0.00 91 1025.5
20260906031522 56 23 0.0 0.0 8.29 9.99 0.00 91 1025.4
20260906031022 55 23 0.0 0.0 8.12 9.99 0.00 91 1025.4
20260906030522 55 23 0.0 0.0 9.00 9.99 0.00 91 1025.3
20260906025521 55 23 0.0 0.0 9.06 9.99 0.00 90 1025.4
20260906024522 56 23 0.0 0.0 9.10 9.99 0.00 90 1025.4
20260906023522 56 23 0.0 0.0 8.24 9.99 0.00 91 1025.2
20260906022523 56 23 0.0 0.0 8.06 9.99 0.00 91 1025.0
20260906022023 56 23 0.0 0.0 8.73 9.99 0.00 91 1025.0
20260906021523 56 23 0.0 0.0 8.14 9.99 0.00 91 1025.0
20260906021023 56 23 0.0 0.0 7.34 9.99 0.00 91 1025.3
20260906020522 56 23 0.0 0.0 7.92 9.99 0.00 91 1025.2
20260906015024 57 23 0.0 0.0 5.71 9.99 0.00 91 1025.0
20260906014523 57 23 0.0 0.0 7.45 9.99 0.00 91 1024.9
20260906014024 57 23 0.0 0.0 6.43 9.71 0.00 91 1024.8
20260906013022 57 23 0.0 0.0 7.59 9.05 0.00 91 1025.0
20260906012522 57 23 0.0 0.0 6.94 9.05 0.00 90 1025.0
20260906012023 57 23 0.0 0.0 7.75 9.05 0.00 90 1025.0
20260906011523 57 23 0.0 0.0 7.77 9.05 0.00 90 1025.0
20260906010523 58 23 0.0 0.0 8.55 7.99 0.00 90 1025.0
20260906010023 58 23 0.0 0.0 9.10 7.97 0.00 90 1025.0
20260906005523 58 23 0.0 0.0 9.00 7.87 0.00 90 1024.9
20260906005024 58 23 0.0 0.0 7.27 6.13 0.00 90 1024.9
20260906004523 58 23 0.0 0.0 8.86 6.13 0.00 90 1025.0
20260906003524 58 23 0.0 0.0 8.12 3.85 0.00 90 1024.9
20260906003023 58 23 0.0 0.0 8.92 3.99 0.00 90 1024.8
20260906002523 58 23 0.0 0.0 9.12 3.99 0.00 90 1024.9
20260906002023 58 23 0.0 0.0 9.12 3.99 0.00 90 1024.8
20260906001523 58 23 0.0 0.0 8.41 3.99 0.00 90 1024.7
20260906001023 58 23 0.0 0.0 8.59 3.99 0.00 90 1024.7
20260906000530 58 23 0.0 0.0 9.51 3.32 0.00 90 1024.6
20260906000025 58 23 0.0 0.0 9.65 2.75 0.00 90 1024.6
20260905235524 58 23 0.0 0.0 9.65 2.75 0.00 90 1024.5
20260905234024 58 23 0.0 0.0 9.51 1.52 0.00 90 1024.4
20260905233025 58 23 0.0 0.0 8.83 0.80 0.00 90 1024.4
20260905232526 58 23 0.0 0.0 9.55 0.80 0.00 90 1024.4
20260905231025 58 23 0.0 0.0 8.59 0.80 0.00 89 1024.3
20260905230525 58 23 0.0 0.0 9.47 0.23 0.00 89 1024.3
20260905225025 58 23 0.0 0.0 8.04 9.99 0.00 89 1024.5
20260905224025 58 23 0.0 0.0 9.20 9.99 0.00 89 1024.4
20260905223525 58 23 0.0 0.0 8.29 9.99 0.00 89 1024.3
20260905222524 58 23 0.0 0.0 9.04 9.99 0.00 89 1024.4
20260905222027 58 23 0.0 0.0 9.04 9.99 0.00 89 1024.2
20260905221525 58 23 0.0 0.0 8.33 9.99 0.00 89 1024.1
20260905221025 58 23 0.0 0.0 8.31 9.99 0.00 89 1024.1
20260905220525 59 23 0.0 0.0 9.10 9.99 0.00 89 1024.1
20260905215025 59 23 0.0 0.0 7.86 9.99 0.00 89 1024.2
20260905214526 59 23 0.0 0.0 9.65 9.99 0.00 89 1024.2
20260905214026 59 23 0.0 0.0 9.94 9.99 0.00 89 1024.1
20260905213527 59 23 0.0 0.0 9.18 9.99 0.00 89 1023.9
20260905213025 59 23 0.0 0.0 9.37 9.99 0.00 89 1023.9
20260905212527 59 23 0.0 0.0 9.99 9.99 0.00 88 1024.0
20260905212025 60 23 0.0 0.0 9.99 9.99 0.00 88 1024.0
20260905211525 60 23 0.0 0.0 9.57 9.99 0.00 88 1023.9
20260905211026 60 23 0.0 0.0 8.79 9.99 0.00 88 1023.9
20260905210525 60 23 0.0 0.0 9.73 9.99 0.00 89 1023.9
20260905205525 60 23 0.0 0.0 9.12 9.99 0.00 89 1023.7
20260905205026 60 23 0.0 0.0 7.32 9.99 0.00 88 1023.6
20260905204527 60 23 0.0 0.0 9.06 9.99 0.00 88 1023.4
20260905203526 60 23 0.0 0.0 7.47 9.99 0.00 88 1023.3